Stafford, VA

3:27 AM EDT on May 24, 2017 (GMT -0400)
Stafford

Weather History for KRMN - February, 2013

Change the Weather History Date:

Tuesday, February 19, 2013

  Actual Average (KNYG) Record (KNYG)
Temperature  
Mean Temperature 40 °F -  
Max Temperature 46 °F 46 °F 73 °F (2017)
Min Temperature 33 °F 29 °F 9 °F (2015)
Degree Days  
Heating Degree Days 26    
Moisture  
Dew Point 31 °F    
Average Humidity 70    
Maximum Humidity 95    
Minimum Humidity 50    
Precipitation  
Precipitation 0.05 in - - ()
Sea Level Pressure  
Sea Level Pressure 29.98 in    
Wind  
Wind Speed 6 mph (SSW)    
Max Wind Speed 13 mph    
Max Gust Speed 21 mph    
Visibility 10 miles    
Events Rain    
Averages and records for this station are not official NWS values.
T = Trace of Precipitation, MM = Missing Value Source: NWS Daily Summary

Daily Weather History Graph

Daily Weather History Graph

Search for Another Location

Airport or City:

Trip Planner

Search our weather history database for the weather conditions in past years. The results will help you decide how hot, cold, wet, or windy it might be!

Date:

Astronomy

Feb. 19, 2013 Rise Set
Actual Time 6:55 AM EST 5:52 PM EST
Civil Twilight 6:28 AM EST 6:19 PM EST
Nautical Twilight 5:57 AM EST 6:50 PM EST
Astronomical Twilight 5:26 AM EST 7:21 PM EST
Moon 12:25 PM EST (2/19) 2:22 AM EST (2/19)
Length of Visible Light 11h 51m
Length of Day
10h 57m
Waxing Gibbous, 67% of the Moon is Illuminated
Feb 19
Waxing Gibbous
Feb 25
Full
Mar 4
Last Quarter
Mar 11
New
Mar 19
First Quarter

Hourly Weather History & Observations

Time (EST) Temp. Windchill Dew Point Humidity Pressure Visibility Wind Dir Wind Speed Gust Speed Precip Events Conditions
12:15 AM 35.6 °F 32.8 °F 18.5 °F 50% 30.22 in 10.0 mi South 3.5 mph - N/A   Clear
12:35 AM 36.0 °F 33.3 °F 19.4 °F 51% 30.20 in 10.0 mi South 3.5 mph - N/A   Clear
12:55 AM 36.5 °F - 19.6 °F 50% 30.19 in 10.0 mi Calm Calm - N/A   Clear
1:15 AM 36.3 °F 33.7 °F 19.9 °F 52% 30.18 in 10.0 mi South 3.5 mph - N/A   Clear
1:35 AM 36.5 °F 33.9 °F 19.6 °F 50% 30.17 in 10.0 mi South 3.5 mph - N/A   Clear
1:55 AM 36.7 °F 34.1 °F 19.8 °F 50% 30.18 in 10.0 mi South 3.5 mph - N/A   Clear
2:15 AM 35.8 °F 31.9 °F 19.9 °F 53% 30.18 in 10.0 mi South 4.6 mph - N/A   Clear
2:35 AM 36.3 °F 33.7 °F 20.7 °F 53% 30.17 in 10.0 mi South 3.5 mph - N/A   Clear
2:55 AM 36.5 °F 31.0 °F 21.2 °F 54% 30.16 in 10.0 mi South 6.9 mph - N/A   Clear
3:15 AM 38.3 °F 33.9 °F 21.9 °F 52% 30.15 in 10.0 mi South 5.8 mph - N/A   Clear
3:35 AM 38.3 °F 33.9 °F 21.7 °F 51% 30.13 in 10.0 mi South 5.8 mph - N/A   Clear
3:55 AM 38.5 °F 34.1 °F 22.1 °F 52% 30.12 in 10.0 mi South 5.8 mph 16.1 mph N/A   Clear
4:15 AM 38.3 °F 33.2 °F 22.5 °F 53% 30.11 in 10.0 mi South 6.9 mph - N/A   Clear
4:35 AM 38.3 °F 33.9 °F 23.0 °F 54% 30.10 in 10.0 mi South 5.8 mph - N/A   Clear
4:55 AM 38.3 °F 34.8 °F 23.2 °F 55% 30.09 in 10.0 mi South 4.6 mph - N/A   Clear
5:15 AM 37.9 °F 32.7 °F 23.7 °F 57% 30.09 in 10.0 mi South 6.9 mph - N/A   Clear
5:35 AM 38.3 °F 32.5 °F 23.9 °F 56% 30.10 in 10.0 mi South 8.1 mph - N/A   Clear
5:55 AM 38.3 °F 32.5 °F 24.1 °F 57% 30.08 in 10.0 mi South 8.1 mph - N/A   Clear
6:15 AM 38.3 °F 32.5 °F 24.4 °F 57% 30.09 in 10.0 mi SSW 8.1 mph - N/A   Clear
6:35 AM 38.3 °F 33.9 °F 24.4 °F 57% 30.08 in 10.0 mi South 5.8 mph - N/A   Clear
6:55 AM 38.3 °F 33.2 °F 24.6 °F 58% 30.08 in 10.0 mi South 6.9 mph - N/A   Clear
7:15 AM 38.3 °F 33.2 °F 24.8 °F 58% 30.06 in 10.0 mi South 6.9 mph - N/A   Scattered Clouds
7:35 AM 38.5 °F 33.4 °F 24.6 °F 58% 30.06 in 10.0 mi South 6.9 mph - N/A   Scattered Clouds
7:55 AM 39.2 °F 33.0 °F 24.8 °F 56% 30.06 in 10.0 mi South 9.2 mph - N/A   Clear
8:15 AM 40.1 °F 33.6 °F 24.8 °F 54% 30.06 in 10.0 mi South 10.4 mph - N/A   Scattered Clouds
8:35 AM 40.6 °F 33.4 °F 25.2 °F 54% 30.05 in 10.0 mi South 12.7 mph 16.1 mph N/A   Overcast
8:55 AM 42.3 °F 35.9 °F 25.7 °F 52% 30.05 in 10.0 mi SW 11.5 mph 20.7 mph N/A   Overcast
9:15 AM 41.5 °F 35.9 °F 31.6 °F 68% 30.05 in 7.0 mi SW 9.2 mph 20.7 mph N/A Rain Rain
9:35 AM 41.2 °F 36.0 °F 33.1 °F 73% 30.02 in 10.0 mi SSW 8.1 mph 16.1 mph 0.01 in Rain Light Rain
9:55 AM 42.1 °F 36.6 °F 32.2 °F 68% 30.03 in 10.0 mi SSW 9.2 mph 17.3 mph 0.01 in   Light Drizzle
10:15 AM 41.9 °F 36.9 °F 33.3 °F 71% 30.01 in 10.0 mi SSW 8.1 mph 16.1 mph N/A Rain Rain
10:35 AM 41.2 °F 36.0 °F 34.5 °F 77% 30.01 in 10.0 mi SSW 8.1 mph 19.6 mph 0.01 in Rain Light Rain
10:55 AM 40.6 °F 36.0 °F 35.2 °F 81% 30.00 in 10.0 mi SSW 6.9 mph - 0.01 in Rain Light Rain
11:15 AM 40.6 °F 36.0 °F 36.7 °F 86% 29.99 in 10.0 mi South 6.9 mph - 0.01 in Rain Light Rain
11:35 AM 41.0 °F 36.4 °F 37.0 °F 86% 29.98 in 10.0 mi SSW 6.9 mph - 0.01 in Rain Light Rain
11:55 AM 41.2 °F 35.0 °F 38.5 °F 90% 29.97 in 10.0 mi South 10.4 mph 16.1 mph 0.02 in Rain Rain
12:15 PM 41.9 °F 36.9 °F 39.4 °F 91% 29.95 in 10.0 mi South 8.1 mph - N/A   Light Drizzle
12:35 PM 42.1 °F 37.1 °F 40.1 °F 93% 29.92 in 10.0 mi South 8.1 mph - N/A   Overcast
12:55 PM 42.4 °F 38.1 °F 40.1 °F 91% 29.91 in 10.0 mi SSW 6.9 mph 16.1 mph N/A Rain Light Rain
1:15 PM 42.8 °F 38.6 °F 40.1 °F 90% 29.89 in 10.0 mi SSW 6.9 mph - N/A   Drizzle
1:35 PM 42.8 °F 38.6 °F 40.8 °F 93% 29.87 in 5.0 mi SSW 6.9 mph - N/A   Drizzle
1:55 PM 42.8 °F 40.1 °F 41.2 °F 94% 29.86 in 4.0 mi SSW 4.6 mph - 0.01 in   Drizzle
2:15 PM 43.2 °F 39.7 °F 41.9 °F 95% 29.84 in 7.0 mi South 5.8 mph - N/A Rain Light Rain
2:35 PM 43.5 °F 39.4 °F 42.3 °F 95% 29.83 in 7.0 mi South 6.9 mph - N/A   Light Drizzle
2:55 PM 43.7 °F 40.3 °F 42.1 °F 94% 29.82 in 10.0 mi SSW 5.8 mph - N/A   Overcast
3:15 PM 44.6 °F 40.7 °F 42.3 °F 91% 29.82 in 10.0 mi SSW 6.9 mph - N/A   Overcast
3:35 PM 44.8 °F 39.9 °F 42.1 °F 90% 29.80 in 10.0 mi SSW 9.2 mph 20.7 mph N/A   Overcast
4:15 PM 45.5 °F 41.3 °F 42.1 °F 88% 29.80 in 10.0 mi SSW 8.1 mph 18.4 mph N/A   Overcast
4:35 PM 46.0 °F 41.4 °F 42.4 °F 87% 29.79 in 10.0 mi SW 9.2 mph 18.4 mph N/A   Overcast
4:55 PM 46.4 °F 42.4 °F 42.3 °F 85% 29.80 in 10.0 mi SW 8.1 mph 16.1 mph N/A   Overcast
5:15 PM 46.4 °F 41.1 °F 42.1 °F 85% 29.80 in 10.0 mi SW 11.5 mph 17.3 mph N/A   Overcast
5:35 PM 45.7 °F 40.2 °F 41.9 °F 87% 29.81 in 10.0 mi SW 11.5 mph 20.7 mph N/A   Overcast
5:55 PM 45.5 °F 42.5 °F 41.4 °F 85% 29.81 in 10.0 mi SW 5.8 mph - N/A   Mostly Cloudy
6:15 PM 45.5 °F 42.5 °F 41.4 °F 85% 29.82 in 10.0 mi SW 5.8 mph - N/A   Overcast
7:35 PM 44.6 °F 43.1 °F 41.0 °F 87% 29.85 in 10.0 mi WSW 3.5 mph - N/A   Scattered Clouds
7:55 PM 43.9 °F 41.3 °F 40.3 °F 87% 29.85 in 10.0 mi WSW 4.6 mph - N/A   Clear
8:15 PM 43.3 °F 38.6 °F 38.7 °F 84% 29.86 in 10.0 mi WSW 8.1 mph - N/A   Clear
8:35 PM 43.7 °F 38.1 °F 35.6 °F 73% 29.87 in 10.0 mi West 10.4 mph - N/A   Clear
8:55 PM 43.3 °F 39.2 °F 32.2 °F 65% 29.87 in 10.0 mi West 6.9 mph - N/A   Clear
9:15 PM 42.8 °F 39.3 °F 30.6 °F 62% 29.88 in 10.0 mi West 5.8 mph - N/A   Clear
9:35 PM 41.9 °F - 29.8 °F 62% 29.89 in 10.0 mi Calm Calm - N/A   Clear
9:55 PM 41.9 °F - 29.1 °F 61% 29.89 in 10.0 mi Calm Calm - N/A   Clear
10:15 PM 41.0 °F - 28.2 °F 60% 29.89 in 10.0 mi Calm Calm - N/A   Clear
10:35 PM 38.7 °F 35.2 °F 28.4 °F 67% 29.89 in 10.0 mi West 4.6 mph - N/A   Clear
10:55 PM 35.1 °F 31.0 °F 29.5 °F 80% 29.89 in 10.0 mi West 4.6 mph - N/A   Clear
11:15 PM 34.9 °F 30.8 °F 27.1 °F 73% 29.89 in 10.0 mi West 4.6 mph - N/A   Clear
11:35 PM 33.8 °F - 27.0 °F 76% 29.90 in 10.0 mi Calm Calm - N/A   Clear
11:55 PM 35.2 °F - 27.1 °F 72% 29.90 in 10.0 mi Calm Calm - N/A   Clear